See reports from other nearby stations

Tides Pressure Air temp Water temp Dewpoint Dewpoint depression Visibility Wind speed Wind direction Waves Ship positions

no recent reports received from weather station ID PAGS

sailing weather and tide predictions

Current Weather: station PAGS

date/time (UTC)wind fromknots sea level pressurealtimeterstation pressurevisibilityair tempwater tempwave heightnotes
2014-Apr-18 23:36 210 7 8.7 9.0
2014-Apr-18 23:16 130 7 8.7 9.0
2014-Apr-18 22:56 120 9 8.7 9.0
2014-Apr-18 22:36 120 10 8.7 9.0
2014-Apr-18 22:16 120 7 8.7 8.0
2014-Apr-18 21:56 120 10 8.7 9.0
2014-Apr-18 21:36 130 8 8.7 9.0
2014-Apr-18 21:16 110 8 8.7 8.0
2014-Apr-18 20:56 190 5 gusting 18 7.8 7.0
2014-Apr-18 20:36 150 14 8.7 8.0
2014-Apr-18 20:16 120 11 gusting 19 8.7 8.0
2014-Apr-18 19:56 130 13 8.7 8.0
2014-Apr-18 19:36 130 15 8.7 8.0
2014-Apr-18 19:16 130 11 gusting 14 8.7 8.0
2014-Apr-18 18:56 130 12 8.7 7.0
2014-Apr-18 18:36 120 10 8.7 7.0
2014-Apr-18 18:16 120 8 8.7 7.0
2014-Apr-18 17:56 120 9 8.7 7.0
2014-Apr-18 17:36 110 9 8.7 6.0
2014-Apr-18 17:16 110 7 8.7 6.0
2014-Apr-18 16:56 130 8 8.7 6.0
2014-Apr-18 16:36 130 9 8.7 6.0
2014-Apr-18 16:16 130 9 8.7 6.0
2014-Apr-18 15:56 130 8 8.7 6.0
2014-Apr-18 15:36 130 10 8.7 5.0
2014-Apr-18 15:16 140 8 8.7 5.0
2014-Apr-18 14:56 140 11 8.7 5.0
2014-Apr-18 14:36 140 10 8.7 5.0
2014-Apr-18 14:16 140 8 8.7 5.0
2014-Apr-18 13:56 140 9 8.7 5.0
2014-Apr-18 13:36 140 10 8.7 5.0
2014-Apr-18 13:16 140 8 8.7 5.0
2014-Apr-18 12:56 140 10 8.7 5.0
2014-Apr-18 12:36 140 9 8.7 5.0
2014-Apr-18 12:16 140 9 8.7 6.0
2014-Apr-18 11:56 140 10 8.7 6.0
2014-Apr-18 11:36 140 10 8.7 6.0
2014-Apr-18 11:16 150 8 8.7 6.0
2014-Apr-18 10:56 140 8 8.7 6.0
2014-Apr-18 10:36 140 9 8.7 6.0
2014-Apr-18 10:16 140 6 8.7 6.0
2014-Apr-18 09:56 130 5 8.7 5.0
2014-Apr-18 09:36 8.7 4.0
2014-Apr-18 09:16 4.3 3.0
2014-Apr-18 08:56 8.7 4.0
2014-Apr-18 08:36 7.0 4.0
2014-Apr-18 08:16 2.6 4.0
2014-Apr-18 07:56 1.7 4.0
2014-Apr-18 07:36 7.0 5.0
2014-Apr-18 07:16 060 4 8.7 5.0
2014-Apr-18 06:56 050 3 7.8 6.0
2014-Apr-18 06:36 8.7 5.0
2014-Apr-18 06:16 260 4 8.7 6.0
2014-Apr-18 05:56 010 3 8.7 6.0
2014-Apr-18 05:36 100 4 7.0 6.0
2014-Apr-18 05:16 8.7 6.0
2014-Apr-18 04:56 8.7 6.0
2014-Apr-18 04:36 320 5 8.7 6.0
2014-Apr-18 04:16 320 3 8.7 6.0
2014-Apr-18 03:56 320 4 8.7 6.0
2014-Apr-18 03:36 330 4 8.7 7.0
2014-Apr-18 03:16 330 4 8.7 7.0
2014-Apr-18 02:56 340 4 8.7 7.0
2014-Apr-18 02:36 350 3 8.7 7.0
2014-Apr-18 02:16 010 3 8.7 7.0
2014-Apr-18 01:56 320 3 8.7 7.0
2014-Apr-18 01:36 8.7 7.0
2014-Apr-18 01:16 8.7 7.0
2014-Apr-18 00:56 100 3 8.7 7.0
2014-Apr-18 00:36 100 3 8.7 7.0
2014-Apr-18 00:16 090 3 8.7 7.0
2014-Apr-17 23:56 070 4 8.7 7.0
2014-Apr-17 23:36 7.8 7.0
2014-Apr-17 23:16 320 5 8.7 7.0
2014-Apr-17 22:56 320 5 8.7 7.0
2014-Apr-17 22:36 7.0 7.0
2014-Apr-17 22:16 8.7 8.0
2014-Apr-17 21:56 8.7 7.0
2014-Apr-17 21:36 110 4 8.7 7.0
2014-Apr-17 21:16 110 4 8.7 8.0
2014-Apr-17 20:56 100 5 8.7 8.0
2014-Apr-17 20:36 300 4 8.7 9.0
2014-Apr-17 20:16 320 9 8.7 9.0
2014-Apr-17 19:56 330 9 8.7 9.0
2014-Apr-17 19:36 330 11 8.7 9.0
2014-Apr-17 19:16 340 11 gusting 14 8.7 9.0
2014-Apr-17 18:56 330 9 8.7 9.0
2014-Apr-17 18:36 330 8 8.7 8.0
2014-Apr-17 18:16 330 10 8.7 8.0
2014-Apr-17 17:56 330 6 8.7 7.0
2014-Apr-17 16:36 360 3 8.7 6.0
2014-Apr-17 15:36 330 3 8.7 4.0
2014-Apr-17 15:16 330 5 8.7 4.0
2014-Apr-17 14:56 320 6 8.7 4.0
2014-Apr-17 14:36 8.7 3.0
2014-Apr-17 14:16 330 3 8.7 3.0
2014-Apr-17 13:56 8.7 4.0
2014-Apr-17 13:36 8.7 4.0
2014-Apr-17 13:16 8.7 4.0
2014-Apr-17 12:56 8.7 4.0
2014-Apr-17 12:36 030 3 8.7 4.0
2014-Apr-17 12:16 8.7 4.0
2014-Apr-17 11:56 8.7 4.0
2014-Apr-17 11:36 8.7 4.0
2014-Apr-17 11:16 8.7 3.0
2014-Apr-17 10:56 8.7 3.0
2014-Apr-17 10:36 340 3 8.7 3.0
2014-Apr-17 10:16 8.7 4.0
2014-Apr-17 09:56 060 3 8.7 4.0
2014-Apr-17 09:36 040 3 8.7 4.0
2014-Apr-17 09:16 8.7 4.0
2014-Apr-17 08:56 8.7 4.0
2014-Apr-17 08:36 050 3 8.7 4.0
2014-Apr-17 08:16 8.7 3.0
2014-Apr-17 07:56 330 4 8.7 3.0
2014-Apr-17 07:36 330 7 8.7 4.0
2014-Apr-17 07:16 320 5 8.7 4.0
2014-Apr-17 06:56 320 6 8.7 4.0
2014-Apr-17 06:36 320 7 8.7 4.0
2014-Apr-17 06:16 320 6 8.7 4.0
2014-Apr-17 05:56 330 7 8.7 4.0
2014-Apr-17 05:36 330 7 8.7 4.0
2014-Apr-17 05:16 330 6 8.7 4.0
2014-Apr-17 04:56 330 6 8.7 5.0
2014-Apr-17 04:36 320 6 8.7 6.0
2014-Apr-17 04:16 320 7 8.7 6.0
2014-Apr-17 03:56 320 6 8.7 6.0
2014-Apr-17 03:36 330 5 8.7 7.0
2014-Apr-17 03:16 320 7 8.7 7.0
2014-Apr-17 02:56 320 5 8.7 7.0
2014-Apr-17 02:36 320 5 8.7 7.0
2014-Apr-17 02:16 320 6 7.8 8.0
2014-Apr-17 01:56 350 4 8.7 9.0
2014-Apr-17 01:36 310 5 8.7 9.0
2014-Apr-17 01:16 330 6 8.7 9.0
2014-Apr-17 00:56 8.7 9.0
2014-Apr-17 00:36 290 4 8.7 9.0
2014-Apr-17 00:16 220 7 8.7 9.0